Location: Unspecified
(0.0000°N, 0.0000°E)
Time: 21:04:53
(UTC+00:00)

Transit 2A - Pass Details

Date: 03 October 2020
Orbit: 592 x 966 km, 66.7° (Epoch: 20 October)

Event Time Altitude Azimuth Distance (km) Brightness Sun altitude
Rises 05:16:02 0° 194° (SSW) 3,269 9.2 -8.2°
Reaches altitude 10° 05:18:22 10° 190° (S) 2,394 8.5 -7.6°
Maximum altitude 05:23:53 65° 109° (ESE) 953 6.8 -6.3°
Drops below altitude 10° 05:29:55 10° 28° (NNE) 2,611 9.1 -4.8°
Sets 05:32:33 0° 25° (NNE) 3,586 9.8 -4.1°
